Overview Statistics Trail Chart Weather Telemetry Raw packets
 

This is the latest recevied weather packets stored in our database for station/object KB4MOX. If no packets are shown the sender has not sent any weather packets the latest 10 day(s).

<< 110 111 112 113 114 >>
Time Temp. Humidity Pressure Rain* Wind** Luminosity Snow
1787783860 31.11° C 61% 1014.8 hPa 0 mm - 43 W/m² -
1787783556 31.67° C 59% 1014.8 hPa 0 mm - 59 W/m² -
1787783250 32.22° C 57% 1014.7 hPa 0 mm - 79 W/m² -
1787782945 32.78° C 56% 1014.8 hPa 0 mm - 75 W/m² -
1787782644 32.78° C 55% 1014.7 hPa 0 mm - 201 W/m² -
1787782340 33.33° C 54% 1014.6 hPa 0 mm - 211 W/m² -
1787782035 32.78° C 55% 1014.8 hPa 0 mm - 222 W/m² -
1787781731 32.22° C 56% 1014.8 hPa 0 mm - 169 W/m² -
1787781428 32.22° C 55% 1014.7 hPa 0 mm - 78 W/m² -
1787781128 32.22° C 56% 1014.9 hPa 0 mm - 70 W/m² -
1787780827 32.22° C 54% 1014.7 hPa 0 mm - 78 W/m² -
1787780521 32.22° C 55% 1014.8 hPa 0 mm - 121 W/m² -
1787780216 32.22° C 55% 1014.9 hPa 0 mm - 79 W/m² -
1787779911 31.67° C 56% 1014.9 hPa 0 mm - 287 W/m² -
1787779605 31.67° C 56% 1014.7 hPa 0 mm - 97 W/m² -
1787779300 31.67° C 56% 1014.8 hPa 0 mm - 106 W/m² -
1787778995 31.67° C 57% 1014.8 hPa 0 mm - 112 W/m² -
1787778691 31.11° C 56% 1014.8 hPa 0 mm - 127 W/m² -
1787778387 31.11° C 58% 1014.9 hPa 0 mm - 316 W/m² -
1787778082 31.11° C 57% 1014.9 hPa 0 mm - 70 W/m² -
1787777781 31.11° C 57% 1014.9 hPa 0 mm - 57 W/m² -
1787777478 31.11° C 58% 1014.7 hPa 0 mm - 57 W/m² -
1787777177 31.11° C 59% 1014.7 hPa 0 mm - 78 W/m² -
1787776876 31.11° C 58% 1014.9 hPa 0 mm - 127 W/m² -
1787776575 31.67° C 58% 1014.8 hPa 0 mm - 187 W/m² -

* Rain latest hour (hover to see other rain measurements)
** Current wind speed in m/s (hover to see current wind gust speed)